Regional Weather Roundup
Issued by NWS

Home | Current Version | Previous Version | Graphics & Text | Print | Product List | Glossary On
Versions: 1 2 3 4 5 6 7 8 9 10 11 12 13 14 15 16 17 18 19 20 21 22 23 24 25 26 27 28 29 30 31 32 33 34 35 36 37 38 39 40 41 42 43 44 45 46 47 48 49 50
800
ASUS43 KIND 230509
RWRIN

WEATHER ROUNDUP FOR INDIANA
NATIONAL WEATHER SERVICE INDIANAPOLIS IN
1200 AM EST THU FEB 23 2017

NOTE: "FAIR" INDICATES FEW OR NO CLOUDS BELOW 12,000 FEET WITH NO
SIGNIFICANT WEATHER AND/OR OBSTRUCTIONS TO VISIBILITY.

* - STATION DOES NOT REPORT WEATHER SUCH AS PRECIPITATION OR FOG.

+ - STATION NOT QUALITY CONTROLLED BY THE NATIONAL WEATHER SERVICE.
    USE DATA WITH CAUTION...ESPECIALLY DEWPOINT AND RELATIVE
    HUMIDITY OBSERVATIONS.

INZ001>003-010>013-019-020-230600-
NORTHWEST INDIANA

CITY           SKY/WX    TMP DP  RH WIND       PRES   REMARKS
GARY /AIRPORT/ CLEAR     60  54  78 SW6       29.64S
KNOX *+        PTCLDY    55  37  50 S12       29.67S
LA PORTE +     PTCLDY    56  53  89 S9        29.66F
MICHIGAN CITY+ CLEAR     55  54  94 S13G18    29.65S
MONTICELLO +   CLEAR     57  53  84 S10       29.70S
RENSSELAER +   CLEAR     55  54  94 S10       29.68F
VALPARAISO     CLEAR     58  54  86 SW13      29.66F

$$

LMZ046-743>745-230600-
SOUTHERN LAKE MICHIGAN

STATION/POSITION TIME  TEMP    WIND        PRES    WAVE
                       AIR SEA DIR/SP/G            HT
                 (UTC) (F)     (DEG/KT/KT) (MB)    (FT)
BURNS HARBOR     0440   58     200/ 20/ 24 1003.7F
MICHIGAN CITY    0440   59     170/ 16/ 18   N/A

$$

INZ004-005-014>016-021>024-230600-
NORTH CENTRAL INDIANA

CITY           SKY/WX    TMP DP  RH WIND       PRES   REMARKS
GOSHEN         MOCLDY    57  51  80 S13       29.68F
LOGANSPORT +   CLEAR     52  50  93 S8        29.71F
PERU/GRISSOM   CLEAR     55  55 100 S8        29.71R
ROCHESTER +    CLEAR     59  54  82 S10G17    29.70S
SOUTH BEND     CLEAR     57  53  86 SW14      29.66F
WARSAW +       CLEAR     54  52  94 CALM      29.70S

$$

INZ006>009-017-018-025>027-230600-
NORTHEAST INDIANA

CITY           SKY/WX    TMP DP  RH WIND       PRES   REMARKS
ANGOLA *+      MOCLDY    55  46  71 S8        29.69F
AUBURN +       CLEAR     55  52  88 S6        29.72S
FORT WAYNE     PTCLDY    55  52  89 S9        29.72S
HUNTINGTON +   CLEAR     55  54  95 S6        29.72S
KENDALLVILLE + MOCLDY    57  55  92 SW12G18   29.71S

$$

INZ028-029-035-036-043>045-051>053-230600-
WEST CENTRAL INDIANA

CITY           SKY/WX    TMP DP  RH WIND       PRES   REMARKS
LAFAYETTE      CLEAR     57  53  86 SW6       29.71R
TERRE HAUTE    CLEAR     57  52  83 S7        29.74S

$$

INZ030>032-037>040-046>048-054>057-064-065-230600-
CENTRAL INDIANA

CITY           SKY/WX    TMP DP  RH WIND       PRES   REMARKS
CP ATTERBURY + CLEAR     57  52  82 S5        29.76S
FRANKFORT +    CLEAR     56  53  91 SW5       29.75R
GREENWOOD *+   CLEAR     57  55  91 S7        29.75S
INDIANAPOLIS   PTCLDY    58  53  84 S9        29.74R
-EAGLE CREEK   CLEAR     58  52  80 S5        29.73S
KOKOMO +       CLEAR     54  52  93 S7        29.73S
MARION +       CLEAR     53  52  95 S8        29.74S
MT COMFORT *+  CLEAR     55  52  88 S7        29.75S
SHELBYVILLE    CLEAR     58  52  80 S10       29.75S
ZIONSVILLE +   CLEAR     54  51  91 S7        29.74S

$$

INZ033-034-041-042-049-050-058-059-230600-
EAST CENTRAL INDIANA

CITY           SKY/WX    TMP DP  RH WIND       PRES   REMARKS
MUNCIE         CLEAR     59  54  83 SW8       29.74R

$$

INZ060-061-067>069-081>083-085>088-230600-
SOUTHWEST INDIANA

CITY           SKY/WX    TMP DP  RH WIND       PRES   REMARKS
EVANSVILLE     PTCLDY    57  53  86 SW3       29.78R
HUNTINGBURG *+ CLEAR     60  56  86 S8        29.77S
WASHINGTON +   CLEAR     55  54  94 S5        29.77R

$$

INZ062-063-066-070>080-084-089>092-230600-
SOUTH CENTRAL AND SOUTHEAST INDIANA

CITY           SKY/WX    TMP DP  RH WIND       PRES   REMARKS
BEDFORD +      CLEAR    N/A N/A N/A S6        29.76
BLOOMINGTON    CLEAR     58  52  80 S7        29.76R
MADISON *+     PTCLDY    59  54  82 SE6       29.81F
NORTH VERNON + PTCLDY    61  59  94 S7        29.78F
SEYMOUR +      PTCLDY    57  54  88 S6        29.77F

$$





USA.gov is the U.S. government's official web portal to all federal, state and local government web resources and services.